Location: Hac?musa Deresi
(39.1694°N, 32.2508°E)
Time: 16:55:22
(UTC+00:00)

Cosmos 2150 Rocket - Pass Details

Date: 22 April 2026
Orbit: 745 x 803 km, 74.0° (Epoch: 11 May)

Event Time Altitude Azimuth Distance (km) Brightness Sun altitude
Rises 17:59:24 0° 189° (S) 3,171 7.0 -15.7°
Reaches altitude 10° 18:01:45 10° 186° (S) 2,254 6.2 -16.1°
Maximum altitude 18:06:48 65° 106° (ESE) 823 3.9 -16.9°
Drops below altitude 10° 18:11:56 10° 25° (NNE) 2,293 6.6 -17.8°
Sets 18:14:20 0° 22° (NNE) 3,231 7.4 -18.2°
